Location: Newark
(43.6583°N, 1.6617°E)
Time: 15:21:35
(UTC+00:00)

Tiros 1 - Pass Details

Date: 28 August 2019
Orbit: 631 x 664 km, 48.4° (Epoch: 18 September)

Event Time Altitude Azimuth Distance (km) Brightness Sun altitude
Rises 01:51:36 0° 291° (WNW) 2,923 - -30.3°
Reaches altitude 10° 01:53:57 10° 295° (WNW) 2,016 - -30.0°
Maximum altitude 01:58:32 59° 15° (NNE) 736 - -29.6°
Exits shadow 02:00:10 37° 77° (ENE) 1,000 8.4 -29.4°
Drops below altitude 10° 02:03:09 10° 96° (E) 2,029 10.0 -29.1°
Sets 02:05:31 0° 100° (E) 2,942 10.9 -28.8°
